TimeCST,TemperatureF,Dew PointF,Humidity,Sea Level PressureIn,VisibilityMPH,Wind Direction,Wind SpeedMPH,Gust SpeedMPH,PrecipitationIn,Events,Conditions,WindDirDegrees,DateUTC
12:15 AM,27.1,26.1,96,29.66,10.0,Calm,Calm,-,N/A,,Clear,0,2011-11-12 06:15:00
12:35 AM,26.6,25.5,96,29.65,10.0,Calm,Calm,-,N/A,,Clear,0,2011-11-12 06:35:00
12:55 AM,25.9,25.2,97,29.66,10.0,Calm,Calm,-,N/A,,Clear,0,2011-11-12 06:55:00
1:15 AM,26.1,25.3,97,29.65,10.0,Calm,Calm,-,N/A,,Clear,0,2011-11-12 07:15:00
1:35 AM,26.1,25.0,96,29.64,10.0,Calm,Calm,-,N/A,,Clear,0,2011-11-12 07:35:00
1:55 AM,26.2,25.5,97,29.65,10.0,Calm,Calm,-,N/A,,Clear,0,2011-11-12 07:55:00
2:15 AM,25.7,25.0,97,29.64,10.0,Calm,Calm,-,N/A,,Clear,0,2011-11-12 08:15:00
2:35 AM,25.5,24.6,96,29.64,10.0,Calm,Calm,-,N/A,,Clear,0,2011-11-12 08:35:00
2:55 AM,25.2,24.6,98,29.64,10.0,Calm,Calm,-,N/A,,Clear,0,2011-11-12 08:55:00
4:15 AM,23.7,23.2,98,29.64,10.0,Calm,Calm,-,N/A,,Clear,0,2011-11-12 10:15:00
4:35 AM,23.5,23.2,99,29.64,10.0,Calm,Calm,-,N/A,,Clear,0,2011-11-12 10:35:00
4:55 AM,23.5,23.0,98,29.65,10.0,Calm,Calm,-,N/A,,Clear,0,2011-11-12 10:55:00
5:15 AM,23.0,22.1,96,29.65,10.0,Calm,Calm,-,N/A,,Clear,0,2011-11-12 11:15:00
5:35 AM,22.8,22.1,97,29.65,10.0,Calm,Calm,-,N/A,,Clear,0,2011-11-12 11:35:00
6:15 AM,22.3,21.4,96,29.65,10.0,Calm,Calm,-,N/A,,Clear,0,2011-11-12 12:15:00
6:35 AM,22.3,21.7,98,29.65,10.0,Calm,Calm,-,N/A,,Clear,0,2011-11-12 12:35:00
6:55 AM,22.1,21.6,98,29.66,10.0,Calm,Calm,-,N/A,,Clear,0,2011-11-12 12:55:00
7:15 AM,21.7,20.8,96,29.66,10.0,Calm,Calm,-,N/A,,Clear,0,2011-11-12 13:15:00
7:35 AM,22.5,21.7,97,29.65,10.0,Calm,Calm,-,N/A,,Clear,0,2011-11-12 13:35:00
7:55 AM,24.3,23.5,97,29.65,10.0,Calm,Calm,-,N/A,,Clear,0,2011-11-12 13:55:00
8:15 AM,27.0,26.4,98,29.65,10.0,Calm,Calm,-,N/A,,Clear,0,2011-11-12 14:15:00
8:55 AM,32.5,30.6,92,29.65,10.0,Calm,Calm,-,N/A,,Clear,0,2011-11-12 14:55:00
9:15 AM,36.9,32.0,83,29.65,10.0,Calm,Calm,-,N/A,,Clear,0,2011-11-12 15:15:00
9:35 AM,39.4,32.2,75,29.65,10.0,Calm,Calm,-,N/A,,Clear,0,2011-11-12 15:35:00
9:55 AM,41.4,32.4,70,29.65,10.0,Calm,Calm,-,N/A,,Clear,0,2011-11-12 15:55:00
10:15 AM,45.0,33.3,64,29.65,10.0,Calm,Calm,-,N/A,,Clear,0,2011-11-12 16:15:00
10:35 AM,49.1,32.4,53,29.64,10.0,South,3.5,-,N/A,,Clear,170,2011-11-12 16:35:00
10:55 AM,51.1,32.0,48,29.63,10.0,SE,4.6,-,N/A,,Clear,140,2011-11-12 16:55:00
11:15 AM,51.6,31.5,46,29.63,10.0,SSW,4.6,-,N/A,,Clear,200,2011-11-12 17:15:00
11:35 AM,52.2,31.8,46,29.62,10.0,South,9.2,-,N/A,,Clear,180,2011-11-12 17:35:00
11:55 AM,51.1,32.0,48,29.61,10.0,South,4.6,-,N/A,,Clear,190,2011-11-12 17:55:00
12:15 PM,53.1,33.1,47,29.60,10.0,South,6.9,-,N/A,,Clear,180,2011-11-12 18:15:00
12:35 PM,52.3,32.5,47,29.60,10.0,South,9.2,-,N/A,,Clear,190,2011-11-12 18:35:00
12:55 PM,53.2,33.1,46,29.59,10.0,South,8.1,-,N/A,,Clear,190,2011-11-12 18:55:00
1:15 PM,53.6,33.4,46,29.58,10.0,South,8.1,-,N/A,,Clear,190,2011-11-12 19:15:00
1:35 PM,54.0,34.2,47,29.57,10.0,South,9.2,-,N/A,,Clear,180,2011-11-12 19:35:00
1:55 PM,53.4,33.8,47,29.57,10.0,South,10.4,-,N/A,,Clear,170,2011-11-12 19:55:00
2:15 PM,55.8,34.0,44,29.56,10.0,South,11.5,17.3,N/A,,Clear,180,2011-11-12 20:15:00
2:35 PM,54.1,34.0,47,29.55,10.0,South,8.1,-,N/A,,Clear,190,2011-11-12 20:35:00
2:55 PM,53.6,34.7,49,29.54,10.0,South,5.8,-,N/A,,Clear,170,2011-11-12 20:55:00
3:15 PM,53.4,35.4,51,29.53,10.0,SSE,10.4,-,N/A,,Clear,160,2011-11-12 21:15:00
3:35 PM,52.5,35.8,53,29.53,10.0,South,6.9,-,N/A,,Clear,170,2011-11-12 21:35:00
3:55 PM,51.1,36.1,57,29.52,10.0,SSE,8.1,-,N/A,,Clear,160,2011-11-12 21:55:00
4:15 PM,50.2,36.5,59,29.51,10.0,SE,6.9,-,N/A,,Clear,140,2011-11-12 22:15:00
4:35 PM,49.5,36.7,61,29.50,10.0,SSE,10.4,17.3,N/A,,Clear,160,2011-11-12 22:35:00
4:55 PM,48.7,37.2,64,29.50,10.0,South,6.9,-,N/A,,Clear,170,2011-11-12 22:55:00
5:15 PM,48.4,37.4,66,29.49,10.0,South,8.1,-,N/A,,Clear,170,2011-11-12 23:15:00
5:35 PM,48.2,37.4,66,29.49,10.0,SSE,5.8,-,N/A,,Clear,160,2011-11-12 23:35:00
5:55 PM,48.4,37.0,65,29.49,10.0,South,4.6,-,N/A,,Clear,190,2011-11-12 23:55:00
6:15 PM,48.6,36.9,64,29.48,10.0,SSW,4.6,-,N/A,,Clear,200,2011-11-13 00:15:00
6:35 PM,48.6,36.7,64,29.46,10.0,South,8.1,-,N/A,,Clear,190,2011-11-13 00:35:00
6:55 PM,49.1,36.5,62,29.46,10.0,South,9.2,-,N/A,,Clear,170,2011-11-13 00:55:00
7:35 PM,48.9,36.0,61,29.44,10.0,South,6.9,-,N/A,,Clear,180,2011-11-13 01:35:00
7:55 PM,49.5,35.8,59,29.43,10.0,South,8.1,-,N/A,,Clear,180,2011-11-13 01:55:00
8:15 PM,50.2,35.8,58,29.43,10.0,South,9.2,-,N/A,,Clear,190,2011-11-13 02:15:00
8:35 PM,50.2,35.6,57,29.42,10.0,South,11.5,16.1,N/A,,Clear,180,2011-11-13 02:35:00
8:55 PM,49.8,35.6,58,29.42,10.0,SSE,12.7,16.1,N/A,,Clear,160,2011-11-13 02:55:00
9:35 PM,49.5,35.2,58,29.41,10.0,South,10.4,16.1,N/A,,Clear,180,2011-11-13 03:35:00
9:55 PM,49.5,35.2,58,29.40,10.0,South,12.7,18.4,N/A,,Clear,180,2011-11-13 03:55:00
10:15 PM,49.6,35.2,58,29.38,10.0,South,12.7,18.4,N/A,,Clear,180,2011-11-13 04:15:00
10:35 PM,49.1,35.2,59,29.37,10.0,South,9.2,-,N/A,,Clear,180,2011-11-13 04:35:00
10:55 PM,48.7,35.2,60,29.36,10.0,South,10.4,17.3,N/A,,Clear,180,2011-11-13 04:55:00
11:15 PM,48.7,35.1,59,29.35,10.0,South,10.4,17.3,N/A,,Clear,190,2011-11-13 05:15:00
11:35 PM,48.6,35.1,60,29.35,10.0,South,9.2,16.1,N/A,,Clear,190,2011-11-13 05:35:00
11:55 PM,48.6,35.1,60,29.34,10.0,South,10.4,-,N/A,,Clear,190,2011-11-13 05:55:00